Location: Asheville, NC
(35.6000°N, 82.5500°W)
Time: 06:21:34
(UTC-05:00)

Vanguard 2 Rocket - Pass Details

Date: 09 February 2018
Orbit: 555 x 3327 km, 32.9° (Epoch: 24 February)

Event Time Altitude Azimuth Distance (km) Brightness Sun altitude
Exits shadow 06:31:02 12° 277° (W) 6,044 10.4 -11.1°
Maximum altitude 06:49:27 71° 199° (SSW) 2,733 9.3 -7.4°
Drops below altitude 10° 07:01:44 10° 117° (ESE) 4,188 11.9 -5.0°
Sets 07:04:25 0° 115° (ESE) 4,878 12.9 -4.5°
